Location: Blangy-Tronville
(49.8790°N, 2.4226°E)
Time: 21:31:34
(UTC+00:00)

Cosmos 2297 Rocket - Pass Details

Date: 18 November 2025
Orbit: 837 x 844 km, 71.0° (Epoch: 05 December)

Event Time Altitude Azimuth Distance (km) Brightness Sun altitude
Rises 18:27:31 0° 331° (NNW) 3,411 5.7 -23.0°
Reaches altitude 10° 18:31:44 10° 1° (N) 2,475 4.6 -23.7°
Enters shadow 18:33:06 12° 14° (NNE) 2,341 4.3 -23.9°
